505  
ASUS44 KOUN 221410  
RWROK  
 
WEATHER ROUNDUP FOR OKLAHOMA  
NATIONAL WEATHER SERVICE NORMAN OK  
800 AM CST THU FEB 22 2024  
 
NOTE: "FAIR" INDICATES FEW OR NO CLOUDS BELOW 12,000 FEET WITH NO  
SIGNIFICANT WEATHER AND/OR S TO VISIBILITY
.  
 
OKZ001>007-009>012-014-015-017-221500-  
NORTHWEST OKLAHOMA AND THE PANHANDLE  
 
CITY SKY/WX TMP DP RH WIND PRES REMARKS
 
GAGE PTCLDY 43 35 73 NW9 29.87R  
GUYMON PTCLDY 40 35 83 NW15 29.96R WCI 32  
ENID/WOODRING PTCLDY 46 39 76 NW17 29.73R  

 
 
OKZ016-021>023-033>039-044-045-221500-  
SOUTHWEST OKLAHOMA  
 
CITY SKY/WX TMP DP RH WIND PRES REMARKS
 
LAWTON/REGL CLEAR 46 31 55 W5 29.77R  
LAWTON/FT SILL CLEAR 56 24 29 NW13 29.73S  
FREDERICK CLEAR 50 30 46 NW14 29.77R  
CLINTON CLEAR 45 32 60 NW23 29.81R  
HOBART CLEAR 48 30 49 NW15 29.81R  
ALTUS AFB CLEAR 48 28 45 NW10 29.80R  

 
 
OKZ018>020-024>031-221500-  
CENTRAL OKLAHOMA  
 
CITY SKY/WX TMP DP RH WIND PRES REMARKS
 
OKLAHOMA CITY PTCLDY 50 38 63 NW17 29.73R  
OKC/WILEY POST CLEAR 50 39 66 NW15G23 29.74R  
OKC/TINKER AFB CLEAR 51 38 59 NW15 29.68R  
STILLWATER CLEAR 52 46 80 NW8 29.70R  
GUTHRIE CLEAR N/A N/A N/A NW8 29.72R  

 
 
OKZ008-013-054>072-221500-  
NORTHEAST OKLAHOMA  
 
CITY SKY/WX TMP DP RH WIND PRES REMARKS
 
TULSA MOSUNNY 56 53 90 CALM 29.66R  
TULSA/JONES SUNNY 51 50 96 CALM 29.67R  
PONCA CITY CLEAR 50 41 71 N9 29.72R  
BARTLESVILLE CLEAR 54 53 97 CALM 29.70R  

 
 
OKZ032-040>043-046>053-073>077-221500-  
SOUTH CENTRAL/SOUTHEAST OKLAHOMA  
 
CITY SKY/WX TMP DP RH WIND PRES REMARKS
 
ARDMORE/DWNTWN CLEAR 58 43 57 W8 29.75R  
MCALESTER MOSUNNY 62 56 80 SW14 29.69R  

 
 
 
 
CLICK HERE TO GO TO PREVIOUS BULLETINS.

The Nexlab OK Page Main Text Page